Location: Newark
(14.6100°N, 11.8447°W)
Time: 11:34:43
(UTC+00:00)

Envisat - Visible Passes

Search period start: 13 November 2019 00:00
Search period end: 23 November 2019 00:00
Orbit: 764 x 766 km, 98.1° (Epoch: 13 November)

Date Brightness Start Highest point End Pass type
(mag) Time Alt. Az. Time Alt. Az. Time Alt. Az.
13 Nov 3.1 19:11:44 10° S 19:16:49 82° WSW 19:21:53 10° NNW visible
14 Nov 3.5 18:35:35 10° SE 18:40:10 36° ENE 18:44:46 10° N visible
14 Nov 6.0 20:16:26 10° SW 20:19:03 14° W 20:21:42 10° WNW visible
15 Nov 4.4 19:37:34 10° S 19:42:16 39° W 19:46:59 10° NNW visible
16 Nov 6.2 06:23:35 10° ENE 06:26:30 15° E 06:29:24 10° SE visible
16 Nov 2.9 19:00:31 10° SSE 19:05:35 74° ENE 19:10:38 10° N visible
17 Nov 5.6 20:04:13 10° SW 20:07:47 19° W 20:11:21 10° NW visible
18 Nov 3.8 19:26:05 10° S 19:31:01 53° W 19:35:57 10° NNW visible
19 Nov 6.7 06:13:54 10° E 06:15:12 11° E 06:16:30 10° ESE visible
19 Nov 3.1 18:49:23 10° SSE 18:54:20 54° ENE 18:59:16 10° N visible
20 Nov 5.2 19:52:20 10° SSW 19:56:29 26° W 20:00:41 10° NW visible
21 Nov 3.2 19:14:42 10° S 19:19:45 73° WSW 19:24:49 10° NNW visible
22 Nov 3.4 18:38:24 10° SE 18:43:07 40° ENE 18:47:49 10° N visible
22 Nov 6.1 20:19:56 10° WSW 20:22:01 12° W 20:24:06 10° WNW visible
